Starlink 4317

operational
NORAD ID: 53058 Int'l Des: 2022-077 Owner: SPXS Country: US Constellation: starlink
LEOCIRCULARRETROGRADESSO

About Starlink 4317

Description loading...

Live Position

Loading 3D Globe...

Upcoming Passes

Altitude History

Altitude vs Time

uPlot chart will show altitude changes over time

Two-Line Element Set

1 53058U 22077R 26033.51170940 .00000478 00000-0 41740-4 0 9999
2 53058 97.6034 215.7505 0002290 76.3385 283.8095 15.01262452195640
Epoch: Feb 2, 2026 • Age: 18 hours

Current Status

Altitude 569.9 km
Velocity 7.58 km/s
Sub-Earth Point 49.15°N, 175.03°E
Launch Date Jul 11, 2022
Age 3.5 years
Type internet

Technical Details

Classification Payload
Mass 297.00 kg
Dry Mass 275.00 kg
Total Mass 297.00 kg
Length 0.20 m
Diameter 2.80 m
Span 9.00 m
Shape Box + pan
Manufacturer SPXS
Bus Type Starlink
Phase Status In Orbit
Owner/State SPXS/US

Large Constellations

Loading constellations...